{"data":{"norad_id":61189,"epoch":"2026-05-25T04:04:42.311424Z","epoch_age_seconds":60521,"freshness":"FRESH","line1":"1 61189U 24169A   26145.16993416  .00003187  00000+0  20727-3 0  9993","line2":"2 61189  97.5565 235.0431 0004310 115.0388 245.1288 15.08695920 92350","mean_motion":15.0869592,"eccentricity":0.000431,"inclination_deg":97.5565,"raan_deg":235.0431,"arg_perigee_deg":115.0388,"mean_anomaly_deg":245.1288,"bstar":0.00020727,"rev_number":9235,"period_min":95.446668935116,"perigee_km":537.20202265867,"apogee_km":543.16561520459,"semimajor_km":6918.3208189316,"source":"CELESTRAK","updated_at":"2026-05-25T13:38:02.311402Z"}}